Hourly Data Report for June 22, 2018

LONDON CS
ONTARIO
Current Station Operator: ECCC - MSC

43°02'00.000" N
81°09'00.000" W
278.00 m
6144478
71622
WSN

Download Data

Hourly Data (June 2018)
Hourly Data Report for June 22, 2018
TIME Temp Definition
°C
Dew Point Definition
°C
Rel Hum Definition
%
Wind Dir Definition
10's deg

Wind Spd Definition
km/h
Visibility Definition
km
Stn Press Definition
kPa
Hmdx Definition


Wind Chill Definition


Weather Definition


00:00 14.9 6.6 57 LegendMM LegendMM   98.06     LegendNANA
01:00 14.6 6.7 59 LegendMM LegendMM   98.02     LegendNANA
02:00 14.5 6.6 59 LegendMM LegendMM   98.01     LegendNANA
03:00 14.2 7.0 62 LegendMM LegendMM   97.99     LegendNANA
04:00 14.2 6.8 61 LegendMM LegendMM   98.01     LegendNANA
05:00 14.2 7.0 62 LegendMM LegendMM   98.00     LegendNANA
06:00 14.7 6.9 60 LegendMM LegendMM   98.01     LegendNANA
07:00 16.2 6.8 54 LegendMM LegendMM   98.02     LegendNANA
08:00 16.5 6.5 52 LegendMM LegendMM   98.03     LegendNANA
09:00 17.5 7.3 51 LegendMM LegendMM   98.04     LegendNANA
10:00 19.5 8.0 47 LegendMM LegendMM   98.01     LegendNANA
11:00 19.8 8.7 49 LegendMM LegendMM   98.01     LegendNANA
12:00 20.9 10.6 51 LegendMM LegendMM   97.99     LegendNANA
13:00 22.0 11.9 53 LegendMM LegendMM   97.93     LegendNANA
14:00 21.1 12.4 57 LegendMM LegendMM   97.88     LegendNANA
15:00 19.6 13.4 68 LegendMM LegendMM   97.81     LegendNANA
16:00 16.5 13.3 82 LegendMM LegendMM   97.85     LegendNANA
17:00 15.3 13.7 91 LegendMM LegendMM   97.80     LegendNANA
18:00 15.5 14.6 94 LegendMM LegendMM   97.76     LegendNANA
19:00 15.0 13.6 92 LegendMM LegendMM   97.75     LegendNANA
20:00 15.4 14.2 93 LegendMM LegendMM   97.71     LegendNANA
21:00 16.1 15.2 94 LegendMM LegendMM   97.71     LegendNANA
22:00 16.9 15.9 94 LegendMM LegendMM   97.70     LegendNANA
23:00 17.1 16.1 94 LegendMM LegendMM   97.68     LegendNANA

Notes on Data Quality.

Legend

  • E = Estimated
  • M = Missing
  • NA = Not Available*
  • [empty] = Indicates an unobserved value
Date modified: